Home > Weather > Yakutsk > Past weeks

Flag for Russia Weather for the Past 2 Weeks in Yakutsk, Russia

Now
-47 °F

Extremely cold.


Feels Like: -47 °F
Forecast: -48 / -36 °F
Wind: 1 mph from North

Location: Jakutsk

Current Time: Feb 8, 2016 at 3:30:19 AM

Latest Report: Feb 8, 2016 at 3:00 AM


Visibility: 0 mi

Pressure: 29.89 "Hg

Humidity: 56%

Dew point: -56 °F

Location of YakutskLocation

Historic Weather in Yakutsk — Graph

°F

Yakutsk Temperature Yesterday

Maximum temperature yesterday: -44 °F (at 2:00 PM)
Minimum temperature yesterday: -54 °F (at 5:30 AM)
Average temperature yesterday: -49 °F

High & Low Weather Summary for the Past Weeks

 TemperatureHumidityPressure
High-27 °F (Jan 25, 7:00 PM)74% (Jan 24, 3:30 AM)30.42 "Hg (Jan 24, 3:30 AM)
Low-56 °F (Feb 6, 5:30 AM)48% (Feb 6, 6:30 AM)29.65 "Hg (Jan 25, 11:00 PM)
Average-40 °F63%30.09 "Hg
* Reported Jan 24 2:00 AM — Feb 8 2:00 AM, Yakutsk, Weather by CustomWeather, © 2016

Note: Actual official high and low records may vary slightly from our data, if they occured in-between our weather recording intervals... More about our weather records

Advertising

Yakutsk Weather History for the Previous 24 Hours

 ConditionsComfort  
Time TempWeatherWind HumidityBarometerVisibility
2:00 AM
Mon, Feb 8
-47 °FExtremely cold.1 mph56%29.92 "Hg0 mi
1:30 AM-45 °FExtremely cold.1 mph57%29.92 "Hg1 mi
1:00 AM-47 °FExtremely cold.1 mph63%29.92 "Hg1 mi
12:30 AM-47 °FExtremely cold.1 mph63%29.92 "Hg0 mi
12:00 AM-45 °FExtremely cold.1 mph57%29.92 "Hg0 mi
11:30 PM
Sun, Feb 7
-47 °FExtremely cold.1 mph63%29.92 "Hg0 mi
11:00 PM-47 °FExtremely cold.1 mph63%29.95 "Hg0 mi
10:30 PM-47 °FFog.1 mph63%29.95 "Hg0 mi
10:00 PM-47 °FFog.1 mph56%29.95 "Hg0 mi
9:30 PM-47 °FFog.1 mph63%29.95 "Hg0 mi
9:00 PM-47 °FExtremely cold.1 mph63%29.95 "Hg0 mi
8:30 PM-47 °FFog.1 mph56%29.95 "Hg0 mi
8:00 PM-47 °FExtremely cold.1 mph63%29.98 "Hg0 mi
7:30 PM-47 °FExtremely cold.1 mph63%29.98 "Hg0 mi
7:00 PM-45 °FExtremely cold.1 mph57%29.98 "Hg1 mi
6:30 PM-45 °FExtremely cold.1 mph57%29.98 "Hg1 mi
6:00 PM-45 °FIce fog.1 mph64%29.98 "Hg1 mi
5:30 PM-44 °FIce fog.3 mph57%30.01 "Hg1 mi
5:00 PM-44 °FExtremely cold.1 mph57%30.01 "Hg1 mi
4:30 PM-44 °FExtremely cold.1 mph64%30.01 "Hg1 mi
4:00 PM-44 °FExtremely cold.1 mph64%30.01 "Hg1 mi
3:30 PM-44 °FIce fog.3 mph64%30.01 "Hg1 mi
3:00 PM-44 °FExtremely cold.3 mph64%30.01 "Hg1 mi
2:30 PM-44 °FExtremely cold.3 mph57%30.01 "Hg1 mi
2:00 PM-44 °FIce fog.3 mph57%30.04 "Hg1 mi
1:30 PM-45 °FExtremely cold.1 mph57%30.04 "Hg1 mi
1:00 PM-45 °FIce fog.1 mph57%30.04 "Hg1 mi
12:30 PM-45 °FExtremely cold.1 mph57%30.04 "Hg1 mi
12:00 PM-47 °FExtremely cold.1 mph56%30.04 "Hg1 mi
11:30 AM-49 °FExtremely cold.1 mph56%30.07 "Hg1 mi
11:00 AM-51 °FExtremely cold.1 mph56%30.07 "Hg1 mi
10:30 AM-53 °FExtremely cold.1 mph55%30.07 "Hg1 mi
10:00 AM-53 °FExtremely cold.1 mph55%30.09 "Hg1 mi
9:30 AM-53 °FExtremely cold.1 mph49%30.09 "Hg0 mi
9:00 AM-54 °FExtremely cold.1 mph55%30.09 "Hg1 mi
8:30 AM-54 °FExtremely cold.1 mph55%30.09 "Hg1 mi
8:00 AM-54 °FExtremely cold.1 mph55%30.09 "Hg0 mi
7:30 AM-54 °FExtremely cold.1 mph55%30.09 "Hg0 mi
7:00 AM-54 °FExtremely cold.1 mph55%30.12 "Hg0 mi
6:00 AM-54 °FExtremely cold.1 mph55%30.12 "Hg1 mi
5:30 AM-54 °FExtremely cold.1 mph55%30.12 "Hg0 mi
5:00 AM-53 °FExtremely cold.1 mph55%30.12 "Hg0 mi
4:30 AM-53 °FExtremely cold.1 mph55%30.15 "Hg0 mi
4:00 AM-53 °FExtremely cold.1 mph55%30.15 "Hg0 mi
3:30 AM-53 °FExtremely cold.1 mph55%30.15 "Hg0 mi
3:00 AM-53 °FExtremely cold.1 mph55%30.15 "Hg0 mi
Weather by CustomWeather, © 2016

See weather overviewHow to use our weather pages